カタログに戻る

SICRAL 1B

運用中軍事GEO
NORAD 34810·PAYLOAD·🇮🇹 Italy

打ち上げ Apr 20, 2009 から Sea Launch Platform

Loading…

TLE

最新Source: Mike McCants

元期: Sep 15, 2026, 04:50 UTC

1 34810U 09020A   26258.20159602  .00000000  00000-0  00000-0 0    08
2 34810   3.0809  78.5037 0003919 254.7247 105.2397  1.00270000  1403

AllMySatでSICRAL 1Bをリアルタイム追跡

Download on the App Store